When you browse on this site, cookies collect data to enhance your experience and personalize the content and advertising you see.
Visit our Privacy Policy to learn more. By continuing to use the site, you agree to this use of cookies and data.
EN

Hourly Weather Calinesti

Today, 5 August, Wednesday

Time Temperature Precipitation Wind Pressure Humidity
00:00 +21°C° 0 mm 4 mps 736 mmHg 56%
01:00 +20°C° 0 mm 4 mps 736 mmHg 59%
02:00 +19°C° 0 mm 3 mps 736 mmHg 62%
03:00 +19°C° 0 mm 3 mps 736 mmHg 65%
04:00 +18°C° 0 mm 3 mps 736 mmHg 68%
05:00 +18°C° 0 mm 3 mps 736 mmHg 70%
06:00 +20°C° 0 mm 4 mps 736 mmHg 66%
07:00 +21°C° 0 mm 4 mps 737 mmHg 61%
08:00 +23°C° 0 mm 5 mps 737 mmHg 56%
09:00 +25°C° 0 mm 5 mps 737 mmHg 50%
10:00 +27°C° 0 mm 5 mps 737 mmHg 44%
11:00 +28°C° 0 mm 6 mps 737 mmHg 38%
12:00 +29°C° 0 mm 5 mps 737 mmHg 34%
13:00 +32°C° 0 mm 5 mps 737 mmHg 30%
14:00 +33°C° 0 mm 5 mps 737 mmHg 26%
15:00 +33°C° 0 mm 5 mps 736 mmHg 27%
16:00 +33°C° 0 mm 5 mps 736 mmHg 27%
17:00 +33°C° 0 mm 5 mps 736 mmHg 27%
18:00 +30°C° 0 mm 5 mps 736 mmHg 33%
19:00 +28°C° 0 mm 5 mps 737 mmHg 38%
20:00 +26°C° 0 mm 4 mps 737 mmHg 43%
21:00 +25°C° 0 mm 4 mps 737 mmHg 45%
22:00 +23°C° 0 mm 4 mps 738 mmHg 47%
23:00 +22°C° 0 mm 4 mps 738 mmHg 48%

Tomorrow, 6 August, Thursday

Time Temperature Precipitation Wind Pressure Humidity
00:00 +21°C° 0 mm 4 mps 738 mmHg 52%
01:00 +20°C° 0 mm 4 mps 739 mmHg 55%
02:00 +20°C° 0 mm 3 mps 739 mmHg 59%
03:00 +19°C° 0 mm 3 mps 739 mmHg 59%
04:00 +19°C° 0 mm 3 mps 739 mmHg 59%
05:00 +19°C° 0 mm 3 mps 739 mmHg 60%
06:00 +21°C° 0 mm 4 mps 739 mmHg 54%
07:00 +23°C° 0 mm 5 mps 740 mmHg 48%
08:00 +26°C° 0 mm 6 mps 740 mmHg 42%
09:00 +28°C° 0 mm 6 mps 740 mmHg 39%
10:00 +29°C° 0 mm 6 mps 740 mmHg 35%
11:00 +32°C° 0 mm 6 mps 740 mmHg 32%
12:00 +32°C° 0 mm 7 mps 740 mmHg 30%
13:00 +33°C° 0 mm 7 mps 740 mmHg 28%
14:00 +34°C° 0 mm 7 mps 739 mmHg 27%
15:00 +34°C° 0 mm 7 mps 739 mmHg 27%
16:00 +34°C° 0 mm 7 mps 739 mmHg 28%
17:00 +34°C° 0 mm 7 mps 739 mmHg 29%
18:00 +32°C° 0 mm 6 mps 739 mmHg 33%
19:00 +29°C° 0 mm 6 mps 739 mmHg 37%
20:00 +28°C° 0 mm 5 mps 739 mmHg 42%
21:00 +26°C° 0 mm 4 mps 740 mmHg 46%
22:00 +25°C° 0 mm 4 mps 740 mmHg 50%
23:00 +24°C° 0 mm 3 mps 740 mmHg 55%

Day after tomorrow, 7 August, Friday

Time Temperature Precipitation Wind Pressure Humidity
00:00 +22°C° 0 mm 3 mps 740 mmHg 56%
01:00 +22°C° 0 mm 3 mps 740 mmHg 57%
02:00 +21°C° 0 mm 3 mps 740 mmHg 58%
03:00 +21°C° 0 mm 3 mps 740 mmHg 57%
04:00 +22°C° 0 mm 3 mps 740 mmHg 57%
05:00 +22°C° 0 mm 3 mps 740 mmHg 56%
06:00 +23°C° 0 mm 4 mps 741 mmHg 53%
07:00 +26°C° 0 mm 5 mps 741 mmHg 51%
08:00 +28°C° 0 mm 6 mps 741 mmHg 48%
09:00 +30°C° 0 mm 6 mps 741 mmHg 43%
10:00 +32°C° 0 mm 6 mps 741 mmHg 39%
11:00 +34°C° 0 mm 7 mps 741 mmHg 34%
12:00 +34°C° 0 mm 7 mps 741 mmHg 34%
13:00 +34°C° 0 mm 7 mps 740 mmHg 34%
14:00 +34°C° 0 mm 7 mps 740 mmHg 35%
15:00 +34°C° 0 mm 7 mps 740 mmHg 37%
16:00 +33°C° 0 mm 7 mps 739 mmHg 39%
17:00 +32°C° 0 mm 7 mps 739 mmHg 41%
18:00 +30°C° 0 mm 6 mps 739 mmHg 44%
19:00 +29°C° 0 mm 6 mps 740 mmHg 48%
20:00 +28°C° 0 mm 6 mps 740 mmHg 51%
21:00 +27°C° 0.1 mm 5 mps 740 mmHg 52%
22:00 +26°C° 0.1 mm 5 mps 740 mmHg 54%
23:00 +26°C° 0.1 mm 4 mps 740 mmHg 55%

8 August, Saturday

Time Temperature Precipitation Wind Pressure Humidity
00:00 +25°C° 0 mm 4 mps 740 mmHg 55%
01:00 +25°C° 0 mm 4 mps 740 mmHg 55%
02:00 +23°C° 0 mm 4 mps 740 mmHg 56%
03:00 +23°C° 0 mm 4 mps 740 mmHg 57%
04:00 +23°C° 0 mm 4 mps 740 mmHg 59%
05:00 +23°C° 0 mm 4 mps 740 mmHg 60%
06:00 +25°C° 0 mm 5 mps 740 mmHg 57%
07:00 +27°C° 0 mm 5 mps 740 mmHg 54%
08:00 +28°C° 0 mm 6 mps 740 mmHg 50%
09:00 +30°C° 0 mm 6 mps 740 mmHg 46%
10:00 +32°C° 0 mm 6 mps 740 mmHg 41%
11:00 +33°C° 0 mm 5 mps 740 mmHg 36%
12:00 +34°C° 0 mm 5 mps 740 mmHg 36%
13:00 +34°C° 0 mm 5 mps 740 mmHg 35%
14:00 +34°C° 0 mm 5 mps 739 mmHg 34%
15:00 +34°C° 0 mm 5 mps 739 mmHg 36%
16:00 +33°C° 0 mm 5 mps 739 mmHg 37%
17:00 +33°C° 0 mm 5 mps 738 mmHg 39%
18:00 +30°C° 0 mm 4 mps 739 mmHg 44%
19:00 +28°C° 0 mm 4 mps 739 mmHg 49%
20:00 +26°C° 0 mm 4 mps 739 mmHg 53%
21:00 +25°C° 0 mm 4 mps 739 mmHg 56%
22:00 +24°C° 0 mm 3 mps 739 mmHg 60%
23:00 +22°C° 0 mm 3 mps 739 mmHg 63%

9 August, Sunday

Time Temperature Precipitation Wind Pressure Humidity
00:00 +21°C° 0 mm 3 mps 739 mmHg 64%
01:00 +21°C° 0 mm 3 mps 739 mmHg 65%
02:00 +20°C° 0 mm 3 mps 739 mmHg 66%
03:00 +20°C° 0 mm 3 mps 739 mmHg 67%
04:00 +20°C° 0 mm 3 mps 739 mmHg 67%
05:00 +19°C° 0 mm 2 mps 739 mmHg 68%
06:00 +21°C° 0 mm 3 mps 739 mmHg 62%
07:00 +24°C° 0 mm 3 mps 739 mmHg 56%
08:00 +26°C° 0 mm 3 mps 739 mmHg 49%
09:00 +27°C° 0 mm 3 mps 739 mmHg 44%
10:00 +29°C° 0 mm 3 mps 739 mmHg 39%
11:00 +31°C° 0 mm 2 mps 739 mmHg 34%
12:00 +31°C° 0 mm 2 mps 739 mmHg 32%
13:00 +32°C° 0 mm 2 mps 739 mmHg 30%
14:00 +32°C° 0 mm 2 mps 738 mmHg 29%
15:00 +32°C° 0 mm 2 mps 738 mmHg 30%
16:00 +32°C° 0 mm 2 mps 738 mmHg 31%
17:00 +31°C° 0 mm 2 mps 738 mmHg 33%
18:00 +29°C° 0 mm 3 mps 738 mmHg 38%
19:00 +28°C° 0 mm 3 mps 738 mmHg 43%
20:00 +26°C° 0 mm 3 mps 738 mmHg 49%
21:00 +25°C° 0 mm 3 mps 738 mmHg 51%
22:00 +24°C° 0 mm 3 mps 738 mmHg 53%
23:00 +22°C° 0 mm 3 mps 739 mmHg 56%

10 August, Monday

Time Temperature Precipitation Wind Pressure Humidity
00:00 +22°C° 0 mm 3 mps 739 mmHg 55%
01:00 +22°C° 0 mm 3 mps 739 mmHg 54%
02:00 +23°C° 0 mm 2 mps 739 mmHg 53%
03:00 +21°C° 0 mm 2 mps 739 mmHg 55%
04:00 +20°C° 0 mm 2 mps 738 mmHg 56%
05:00 +20°C° 0 mm 2 mps 738 mmHg 57%
06:00 +23°C° 0 mm 2 mps 739 mmHg 53%
07:00 +24°C° 0 mm 2 mps 739 mmHg 49%
08:00 +26°C° 0 mm 1 mps 739 mmHg 44%
09:00 +28°C° 0 mm 1 mps 739 mmHg 40%
10:00 +30°C° 0 mm 1 mps 739 mmHg 36%
11:00 +32°C° 0 mm 1 mps 739 mmHg 32%
12:00 +32°C° 0 mm 1 mps 739 mmHg 31%
13:00 +32°C° 0 mm 1 mps 738 mmHg 30%
14:00 +32°C° 0 mm 1 mps 738 mmHg 30%
15:00 +32°C° 0 mm 1 mps 738 mmHg 30%
16:00 +32°C° 0 mm 1 mps 738 mmHg 31%
17:00 +31°C° 0 mm 1 mps 738 mmHg 32%
18:00 +30°C° 0 mm 1 mps 738 mmHg 37%
19:00 +28°C° 0 mm 1 mps 738 mmHg 41%
20:00 +27°C° 0 mm 1 mps 738 mmHg 46%
21:00 +26°C° 0.5 mm 2 mps 738 mmHg 53%
22:00 +24°C° 0.5 mm 2 mps 738 mmHg 60%
23:00 +23°C° 0.5 mm 2 mps 739 mmHg 67%
Show more